Wind_Speed
79 80 81 82 83 83 82 81 80 79 78 77 74 72 70 69 68 67 66 65 65 65 65 65 66 66 66 65 65 64 64 64 64 65 65 66 67 67 68 68 68 68 69 69 71 73 75 77 80 83 85 87 88 89 89 89 89 88 88 87 87 86 86 86 85 84 84 83 83 83 83 83 84 84 85 85 85 86 87 88 89 90 90 91 92 93 94 95
68 70 72 74 76 78 79 80 79 78 77 76 75 73 72 72 71 70 68 67 66 65 65 65 66 66 66 65 65 66 66 67 67 68 69 69 69 70 70 70 71 71 72 74 77 79 82 85 87 89 89 88 87 86 85 84 82 81 80 79 78 78 77 77 77 76 76 76 76 76 77 78 78 79 80 81 82 83 84 85 86 87 88 89 89 90 91 92
55 58 60 63 65 67 70 72 73 73 73 73 72 71 71 71 72 72 72 70 69 68 68 68 67 67 67 67 68 69 70 71 72 73 74 74 74 74 75 76 77 78 80 82 84 86 87 88 87 85 82 79 76 74 72 71 70 69 69 68 68 68 67 67 67 67 67 67 68 69 70 71 72 73 75 76 77 78 80 81 82 83 84 85 86 87 88 89
44 46 49 52 54 57 59 61 63 64 66 66 67 68 68 69 70 71 71 71 70 70 70 70 70 70 70 71 71 72 72 73 74 74 75 76 77 78 79 80 81 81 82 82 82 81 79 76 72 69 66 63 61 60 59 59 59 58 58 58 58 57 57 57 57 57 57 58 59 60 61 63 64 66 67 69 71 73 74 75 77 79 80 82 83 84 85 86
35 37 39 41 43 46 49 52 54 56 58 60 61 63 64 66 67 68 69 69 69 69 70 70 70 71 72 73 73 73 74 74 75 76 76 77 77 77 76 75 74 73 71 68 66 63 60 57 55 53 51 49 48 48 48 47 46 46 45 44 43 42 41 40 40 40 40 41 42 44 46 48 51 53 55 58 61 64 66 67 69 71 74 76 78 79 81 83
27 29 30 32 35 37 40 43 46 49 52 55 57 59 60 61 63 64 66 67 68 68 68 68 68 68 69 70 70 71 71 72 72 71 70 68 65 63 61 59 57 54 52 49 47 45 44 42 40 38 37 36 35 34 32 30 28 27 26 23 22 21 20 20 21 22 23 24 25 27 29 32 34 37 40 44 47 51 54 57 59 62 65 68 70 73 75 77
20 21 23 24 27 30 32 35 38 42 45 48 50 52 54 56 58 59 61 62 63 63 63 63 63 62 62 62 61 61 60 59 57 55 53 50 47 44 42 40 39 37 35 33 32 30 27 25 24 22 19 16 16 15 13 11 10 9 8 8 8 9 9 10 12 13 14 15 17 19 21 23 25 27 30 32 35 38 42 45 48 52 56 59 63 66 68 70
17 16 17 18 19 21 24 26 29 31 33 36 38 41 43 45 47 48 50 51 51 51 51 50 50 49 47 46 44 43 41 40 38 36 34 32 29 27 25 24 23 21 18 16 14 11 7 5 5 3 1 2 3 2 2 2 3 3 4 4 6 7 8 9 10 11 12 13 15 16 18 20 21 23 25 27 29 31 33 35 38 41 45 50 55 59 62 65
15 14 13 12 12 13 14 16 18 20 22 24 25 27 29 30 31 32 34 34 34 34 33 32 32 31 30 28 27 25 24 22 20 18 16 14 12 11 9 7 5 2 3 4 6 7 7 6 6 6 5 3 3 5 5 6 6 6 6 7 8 8 8 9 10 11 12 13 14 16 18 19 21 22 23 25 26 27 29 31 32 34 37 40 45 50 55 59
14 13 12 11 10 10 11 11 11 12 13 13 14 15 16 17 18 18 19 19 19 18 17 16 15 16 16 14 11 9 9 7 4 2 1 2 3 6 9 11 14 15 15 16 16 13 10 9 9 10 9 7 10 12 11 10 10 9 9 9 9 10 10 11 11 12 14 14 16 18 19 19 21 23 24 25 26 27 27 28 29 31 32 34 37 40 45 50
14 13 12 12 11 11 11 11 11 11 11 11 11 11 11 11 11 10 10 9 9 9 8 7 6 5 3 2 4 4 6 8 11 12 13 15 18 21 22 22 22 21 20 20 18 15 15 15 16 17 17 15 14 13 12 13 12 12 11 11 12 12 14 15 16 16 17 17 18 19 20 20 22 23 25 26 27 28 29 29 29 30 31 32 33 34 36 39
14 13 13 12 12 12 12 12 12 11 11 11 12 12 12 12 11 10 10 9 8 8 9 10 10 12 16 15 14 16 19 21 22 23 25 27 28 28 27 27 26 25 24 23 22 21 22 23 24 23 21 19 18 17 17 17 17 16 17 18 18 18 19 20 20 21 21 21 21 22 22 22 23 24 26 27 28 29 30 30 31 31 31 31 32 32 33 34
16 16 15 15 15 15 15 15 15 14 14 14 14 14 14 15 15 15 15 15 17 18 20 23 27 30 27 22 23 28 30 30 31 32 33 34 33 32 31 31 30 29 28 27 26 26 27 28 29 25 23 23 23 23 23 22 22 22 22 22 22 23 24 24 24 25 25 26 26 26 25 25 26 27 28 30 31 31 32 33 33 33 33 32 32 32 32 32
24 23 23 23 23 23 23 23 23 23 24 24 25 26 26 27 27 28 29 31 33 36 37 38 38 36 29 25 30 35 35 36 36 36 36 35 34 33 32 33 33 32 32 31 30 29 31 32 31 29 29 30 29 29 30 29 29 29 29 28 28 28 29 30 31 30 30 32 32 32 31 31 32 32 33 34 35 35 35 35 36 37 36 35 34 33 32 31
37 36 36 36 37 37 37 38 38 38 39 39 40 41 41 41 42 43 45 46 47 47 46 43 40 37 33 32 37 38 38 39 38 37 36 34 34 34 34 35 36 36 36 35 34 35 36 37 37 36 38 38 38 39 39 39 39 39 39 38 38 37 37 38 38 39 39 39 39 40 39 39 38 38 38 38 39 39 39 39 40 40 40 39 38 36 34 32
53 52 52 51 51 51 51 51 51 51 51 51 52 52 52 53 53 54 54 53 52 50 48 44 41 40 38 38 39 39 38 37 36 36 36 36 37 36 37 38 39 39 40 39 39 40 42 43 43 43 45 46 46 48 48 49 48 48 47 47 46 46 45 45 47 47 47 47 46 46 46 45 44 43 43 43 43 43 43 43 43 43 44 44 43 41 38 35
64 63 62 62 61 61 60 60 60 60 59 59 59 59 59 58 57 56 55 54 52 50 48 46 43 42 41 41 40 39 38 37 37 37 37 38 38 38 39 40 41 43 43 42 43 43 45 47 46 46 48 49 51 53 53 54 54 53 52 52 52 53 53 53 53 53 53 53 52 51 51 50 50 49 48 47 47 47 47 47 47 47 47 47 47 46 44 40
68 67 67 66 65 65 64 64 63 63 63 62 61 60 59 58 57 55 54 53 51 50 48 46 45 44 43 42 41 40 39 38 38 38 38 38 39 40 41 42 44 45 44 43 43 43 46 46 46 48 50 52 54 55 55 54 54 54 55 55 56 57 57 57 57 57 57 56 56 56 55 55 55 54 53 52 51 51 51 51 51 51 51 50 50 50 49 47
68 67 67 66 66 65 65 64 64 63 62 62 61 59 58 57 55 54 52 51 51 49 47 46 46 46 43 42 41 41 39 38 38 37 38 39 40 41 42 43 45 44 42 41 41 43 44 45 47 50 52 53 53 53 53 53 54 55 56 57 58 60 60 60 60 60 59 58 58 58 58 58 59 59 58 58 57 56 56 55 54 54 54 54 53 53 52 51
67 67 66 66 65 65 64 64 63 62 61 60 58 57 56 54 53 51 50 50 50 48 46 46 46 45 42 41 41 40 39 38 37 37 37 39 41 42 42 44 43 41 40 40 41 42 42 44 48 51 51 51 51 52 53 53 54 55 57 59 60 61 61 61 61 60 60 60 60 60 60 60 61 61 62 62 61 61 61 60 59 58 57 57 57 56 55 55
66 66 65 65 64 63 63 62 61 60 59 57 56 54 53 52 51 49 48 48 49 47 46 46 45 43 41 40 40 39 38 37 36 35 36 38 40 41 41 41 40 39 39 39 40 40 41 44 48 49 49 49 50 52 53 53 54 56 57 59 61 62 62 62 61 61 61 61 61 61 62 63 63 64 64 65 65 65 65 65 64 64 62 61 61 60 59 59
64 63 63 62 62 61 60 59 58 57 56 54 53 52 50 49 48 46 46 47 46 46 45 44 42 41 40 39 38 39 38 36 35 34 35 37 38 38 38 38 38 39 38 36 36 37 40 43 45 46 48 49 50 51 52 53 54 55 57 59 60 62 62 61 62 62 62 62 62 63 63 65 65 66 67 68 69 69 69 69 69 68 68 67 65 64 63 62
60 60 60 59 58 58 57 56 55 54 52 51 51 49 48 46 44 43 43 43 43 42 42 41 40 39 38 37 37 38 37 35 35 35 35 35 35 35 35 36 37 37 35 34 34 35 37 39 40 43 46 47 48 48 49 52 54 55 57 58 59 60 61 61 62 62 63 63 63 64 64 65 66 68 69 70 72 73 73 73 73 72 72 72 71 69 68 67
57 57 56 55 54 53 53 52 51 50 49 48 47 46 45 43 42 41 40 40 40 39 39 38 36 36 36 36 36 37 36 35 35 35 35 34 33 33 33 34 35 34 34 34 34 34 34 35 37 40 43 45 46 47 49 51 53 55 56 56 57 58 60 61 62 63 63 64 64 65 65 65 67 68 70 71 73 74 75 75 76 76 76 75 74 73 72 71
54 53 52 51 50 50 49 48 47 47 46 45 43 42 41 40 40 39 37 38 38 37 36 35 35 35 35 36 36 36 36 36 35 35 35 34 33 33 33 34 35 35 35 34 34 33 33 34 36 39 43 45 47 48 50 51 52 53 53 54 56 57 58 60 61 63 63 64 64 64 65 66 67 68 70 73 75 76 76 77 78 78 78 77 77 76 75 75
51 50 49 48 47 47 46 45 44 43 42 41 40 39 38 37 37 36 36 37 36 35 35 34 33 33 34 34 34 35 35 34 34 34 35 35 35 35 35 36 37 36 36 35 34 33 33 34 36 39 42 45 46 48 50 51 51 51 51 52 54 55 56 58 60 61 62 63 63 63 64 65 66 68 71 73 75 76 78 80 80 80 79 78 78 77 77 77
47 46 45 45 44 43 43 41 41 39 38 37 36 36 35 35 34 34 35 35 34 33 32 32 32 31 32 32 32 32 32 32 33 33 33 34 36 37 37 39 38 37 36 35 35 34 33 33 35 38 41 44 47 49 50 50 50 49 49 50 51 53 55 56 58 60 61 62 63 63 63 64 65 67 69 72 74 77 79 81 81 80 79 79 78 78 77 77
43 43 42 41 40 40 38 37 37 35 35 34 34 33 33 33 33 32 33 33 31 30 30 30 29 29 30 30 30 31 31 31 32 32 32 33 35 36 37 39 38 37 36 36 35 35 34 33 34 37 41 44 47 49 49 49 49 49 48 48 49 51 53 55 57 58 59 61 61 62 62 63 64 66 68 71 74 76 78 79 80 80 80 80 79 79 78 77
39 39 38 38 37 36 35 35 34 33 32 32 31 31 31 30 30 30 30 29 27 27 27 27 27 28 28 28 28 29 30 30 30 30 31 33 34 36 38 39 38 37 36 36 36 35 35 34 34 36 40 44 46 48 48 48 48 48 48 48 48 49 52 54 55 56 57 58 58 59 60 61 62 64 67 70 72 74 76 78 79 80 80 81 81 80 79 78
35 35 34 34 33 32 32 31 30 30 29 29 28 28 27 27 27 27 26 25 24 24 24 24 24 25 25 25 26 27 27 27 27 28 30 31 34 36 37 37 36 36 36 36 36 35 36 35 34 36 39 42 45 46 47 48 48 48 49 48 47 48 51 52 53 54 55 55 55 56 58 59 61 62 64 66 69 71 75 77 79 79 80 81 81 81 80 78
31 31 30 30 29 29 29 28 27 27 26 26 26 25 25 25 24 24 24 23 23 23 22 22 22 23 23 24 24 25 25 25 26 27 29 30 30 31 32 32 33 34 35 35 35 36 36 35 35 36 38 41 44 45 47 47 47 48 48 47 48 49 50 51 52 52 53 53 54 55 56 57 59 60 62 64 67 70 74 76 78 79 79 80 81 81 80 79
28 27 27 26 26 26 26 25 25 25 25 24 24 23 23 23 23 23 22 22 22 22 22 22 23 23 24 24 25 25 25 26 26 27 27 26 25 26 29 31 32 33 34 34 35 35 35 35 36 37 38 41 43 44 46 46 47 47 48 48 49 49 49 49 50 50 51 52 53 54 54 55 57 59 61 63 66 68 71 74 76 77 78 79 80 80 80 80
25 24 23 23 22 22 22 22 22 22 22 22 22 21 21 21 21 21 20 21 21 21 22 23 23 24 24 25 25 25 25 25 25 24 24 24 25 27 29 31 31 32 33 33 33 33 34 35 36 37 38 40 42 43 45 46 47 47 47 47 46 45 45 46 48 49 50 51 52 53 54 55 56 58 60 62 64 66 69 71 73 75 76 78 78 79 79 80
24 23 22 21 20 20 19 19 18 18 18 18 19 19 19 19 18 18 19 19 19 20 21 22 23 23 24 24 24 24 24 23 23 23 23 24 25 26 27 28 29 30 31 32 32 33 34 35 35 36 37 39 40 42 43 44 45 46 46 44 42 42 43 45 47 49 50 50 51 53 54 54 55 56 58 60 63 64 66 68 70 72 74 76 77 78 79 80
23 22 21 21 20 19 18 17 17 16 16 15 16 16 16 16 16 16 16 17 17 18 19 21 21 22 23 23 24 24 24 23 23 22 23 23 24 24 25 26 27 29 30 31 32 33 34 34 35 35 36 37 38 40 41 42 43 44 44 44 42 42 43 46 48 49 50 50 50 52 53 54 54 55 56 59 61 63 64 66 68 70 72 74 76 77 78 79
21 21 20 20 19 18 17 17 16 15 15 15 15 15 15 15 15 15 15 15 16 17 17 19 19 20 21 22 23 23 23 23 23 23 23 23 24 25 26 27 27 29 29 30 31 32 33 34 35 35 36 36 37 38 39 40 40 42 43 43 43 42 43 45 48 49 49 49 49 51 52 53 53 53 54 57 59 61 62 64 66 68 70 72 73 75 76 77
19 19 19 18 18 17 16 16 15 15 15 15 15 15 15 15 15 15 15 15 15 16 16 17 18 19 20 21 22 23 23 24 24 24 24 25 25 26 26 27 28 28 29 30 31 31 32 33 34 34 36 37 37 38 39 39 39 39 41 41 41 41 42 43 46 48 49 48 48 49 51 52 52 52 53 56 58 60 61 63 65 67 68 69 71 72 73 75
16 17 17 16 16 16 15 15 14 14 14 14 14 14 14 14 14 14 14 14 14 14 15 15 17 18 20 21 22 23 24 24 24 25 25 26 27 27 27 28 28 29 29 29 30 31 31 32 33 34 35 36 37 38 39 39 38 38 38 39 39 39 40 41 43 45 46 48 48 48 50 51 51 51 52 55 58 59 60 62 64 65 67 68 69 70 71 73
13 13 13 13 13 13 13 12 12 12 11 11 11 11 11 11 12 12 12 12 13 13 14 15 17 18 20 21 22 23 24 25 26 26 27 27 28 28 29 29 29 30 30 30 30 31 32 32 32 33 34 35 36 38 39 39 39 38 38 38 38 38 38 40 42 44 44 45 47 47 48 50 50 50 51 55 57 58 59 61 63 64 65 66 67 68 69 71
9 9 9 9 10 10 10 10 10 9 9 10 10 10 11 12 12 13 13 14 15 16 17 18 19 20 20 21 22 23 24 25 26 28 28 29 29 30 30 30 30 30 31 31 31 32 32 33 33 33 33 34 34 36 38 39 39 39 38 38 38 38 38 39 41 43 44 43 44 46 47 48 49 49 51 54 56 57 57 59 61 63 63 64 65 67 68 69
5 5 6 7 7 7 8 8 8 9 9 10 11 12 13 13 14 15 16 17 18 19 20 21 21 21 22 22 23 23 24 25 26 28 29 30 31 31 31 31 30 30 30 31 32 33 33 33 34 34 34 35 35 36 37 38 39 39 39 39 39 38 38 39 40 42 44 43 42 44 46 47 48 49 50 52 55 56 57 58 60 62 62 62 64 65 67 68
4 5 5 6 6 7 7 8 8 8 9 10 11 11 12 13 14 15 16 17 18 19 20 21 22 23 23 24 24 24 25 25 26 27 28 30 31 32 32 32 31 30 29 30 32 33 34 34 35 35 34 34 36 36 37 38 39 38 38 39 39 39 39 40 40 40 43 44 42 42 44 46 48 49 50 51 53 55 56 57 59 60 61 61 62 64 65 67
6 7 7 7 7 8 9 9 10 10 10 11 12 12 13 13 14 15 15 16 17 18 19 21 22 23 23 24 24 25 25 25 26 27 28 29 30 31 31 32 31 30 29 30 31 33 34 35 36 37 36 35 36 37 37 38 38 38 38 39 39 39 40 40 41 41 41 43 44 42 42 44 47 50 50 50 50 52 54 56 58 59 59 60 61 63 64 65
9 9 9 10 10 11 12 12 13 13 14 14 14 14 15 15 16 16 16 17 17 18 19 21 22 22 23 24 24 24 25 25 25 26 27 28 30 30 30 31 31 30 30 31 31 31 32 33 34 35 36 35 35 37 38 38 37 36 37 38 38 39 39 40 42 42 41 42 44 43 42 43 45 49 51 51 50 50 52 54 56 57 58 59 59 61 62 63
11 11 11 12 12 12 13 14 15 15 16 17 17 17 17 18 18 19 19 20 20 20 21 21 22 22 23 24 24 24 24 25 25 26 27 28 29 29 29 29 30 31 31 32 32 32 32 33 32 32 33 33 33 35 37 37 36 35 36 38 38 38 39 40 41 43 43 41 42 44 44 44 44 46 49 51 51 51 51 52 53 55 56 58 58 59 61 62
13 13 13 13 14 14 15 16 16 17 17 18 18 18 18 18 19 19 20 20 21 22 22 22 22 23 24 24 24 24 24 24 25 26 27 28 29 29 29 29 30 31 32 33 34 34 34 34 34 34 34 34 34 34 36 37 36 36 37 38 38 38 38 40 41 43 43 41 41 43 44 45 46 46 47 50 52 52 52 53 54 54 55 56 57 58 59 61
14 14 14 14 14 15 15 16 16 17 17 18 17 17 17 18 18 19 20 20 21 22 23 23 22 23 23 23 23 23 24 24 25 26 27 28 29 29 29 30 31 32 32 33 34 35 35 36 37 37 36 37 38 37 37 37 37 38 38 39 39 39 38 40 42 42 42 41 41 43 45 46 46 46 47 49 53 54 53 54 54 55 56 57 57 58 59 60
15 15 14 14 14 15 15 15 16 16 17 17 17 17 17 18 18 19 19 20 21 22 22 22 23 23 23 23 23 24 24 25 26 27 28 29 29 30 30 31 32 33 33 34 35 36 37 38 40 41 39 39 40 40 39 39 39 39 39 39 40 40 39 41 43 42 41 41 43 44 46 45 45 46 46 47 50 53 54 55 55 55 57 58 58 59 59 60
17 17 17 17 17 17 17 17 18 18 18 19 19 19 19 19 19 19 20 20 21 21 21 22 22 23 23 24 24 25 26 27 28 28 29 29 30 31 31 31 32 33 34 35 36 37 38 40 41 43 44 42 43 43 42 41 41 41 42 42 42 43 42 43 44 43 40 41 44 46 47 46 44 45 46 46 48 50 52 54 55 55 55 57 58 59 60 60
20 20 21 20 20 20 21 21 21 21 21 21 22 22 22 22 22 22 22 23 23 22 22 22 23 24 25 25 26 27 28 29 29 30 30 31 31 32 33 33 33 34 35 36 37 38 39 41 42 45 46 46 46 47 46 44 43 43 44 44 45 45 44 45 45 44 41 41 44 47 49 48 46 45 46 46 46 48 50 52 54 55 54 55 57 58 60 61
24 23 24 24 24 24 24 23 23 23 23 24 24 24 24 25 25 25 25 25 25 25 25 26 25 26 27 28 28 29 29 30 31 31 32 33 33 34 35 35 36 36 37 38 40 41 41 42 43 44 46 48 48 49 50 49 46 45 46 46 46 46 47 47 47 46 44 42 45 48 50 50 49 48 48 47 46 47 48 49 52 55 54 54 55 56 59 60
27 27 27 27 27 27 26 26 25 25 25 25 26 26 26 27 27 27 27 27 28 28 28 29 29 29 29 30 31 31 31 32 33 33 34 34 35 37 37 38 39 39 39 40 42 43 44 43 43 43 45 48 49 49 51 51 48 47 48 48 47 48 49 50 50 49 48 46 46 49 51 51 50 49 49 49 48 48 47 47 49 53 54 54 54 55 58 60
Wind_Direction
238 239 240 241 242 243 244 245 246 247 247 248 248 247 247 247 248 250 252 253 254 256 256 257 259 260 262 263 265 266 268 269 270 270 270 271 271 272 272 273 274 274 275 276 276 278 279 280 282 284 284 285 285 285 285 285 285 285 285 284 284 284 284 283 283 283 282 282 282 281 281 280 280 279 278 278 277 277 276 276 275 275 274 274 273 273 273 272
238 240 241 242 243 244 245 247 248 249 250 251 251 250 249 249 249 250 251 253 254 255 256 257 258 260 261 263 264 266 267 268 269 269 269 270 270 271 272 272 273 274 274 275 276 278 279 280 282 283 284 284 284 284 284 284 284 283 283 283 283 283 283 282 282 282 282 281 281 281 280 280 280 279 279 278 278 277 276 276 275 275 274 273 273 272 272 271
237 239 241 243 244 245 246 247 248 249 250 251 252 252 251 251 251 251 252 253 254 255 256 258 259 261 262 263 264 265 266 267 268 269 270 270 271 272 273 274 274 275 276 277 278 279 280 281 282 282 283 283 283 283 283 282 282 282 283 283 282 282 282 282 282 282 282 282 282 281 281 281 280 280 280 279 278 278 277 276 276 275 274 273 273 272 271 271
234 236 239 241 242 244 245 246 247 248 249 250 251 252 252 252 252 253 253 255 256 258 259 260 262 263 264 264 265 266 267 268 269 271 272 273 275 276 276 277 277 277 278 279 280 280 281 282 282 283 283 283 283 283 283 283 283 284 284 284 284 284 284 285 285 285 285 285 285 285 284 284 283 282 282 281 280 279 278 277 276 276 275 274 273 272 271 270
231 233 236 238 240 242 244 245 246 247 249 250 251 252 253 253 253 254 255 256 258 260 262 264 265 265 265 266 266 267 268 270 272 273 275 276 277 277 278 278 278 278 279 280 280 281 282 283 283 283 284 284 284 285 285 286 286 287 287 288 288 289 290 290 291 291 291 291 291 291 290 290 289 288 287 285 284 282 281 280 279 278 277 275 274 273 272 271
225 229 232 235 237 239 241 243 245 246 248 249 251 252 253 254 255 256 257 259 261 262 264 265 265 266 266 267 267 269 270 271 273 275 276 276 276 277 277 278 278 279 280 281 282 282 283 284 285 285 286 287 287 288 289 290 291 292 293 294 295 296 297 297 298 298 298 297 296 296 295 295 293 292 291 290 289 288 287 285 283 281 279 278 277 275 274 273
211 217 222 227 231 234 237 240 242 244 246 248 249 251 253 254 256 257 258 259 261 262 263 263 264 265 266 267 268 269 271 272 273 274 275 275 276 278 279 280 280 281 282 284 284 286 288 289 290 292 292 293 293 293 295 294 297 301 296 292 291 291 295 300 305 308 310 309 307 307 306 304 301 299 297 294 293 292 290 288 286 284 282 280 278 277 276 274
198 203 209 215 222 227 232 235 238 240 242 245 247 248 250 252 253 254 255 256 257 258 259 261 262 263 264 265 266 268 269 271 272 274 275 278 279 281 282 283 284 285 288 291 295 302 311 309 305 312 300 252 267 285 305 315 328 325 307 302 305 307 312 320 326 330 333 332 331 332 331 328 323 317 312 306 301 298 295 292 289 286 283 281 278 276 275 274
190 193 196 201 205 210 215 220 224 228 232 235 237 240 242 243 244 245 246 248 250 252 254 255 257 258 259 261 263 266 269 272 275 277 279 280 282 284 286 290 300 350 57 64 73 95 112 120 124 114 118 148 85 54 46 36 27 22 17 17 14 8 4 0 358 356 353 351 350 350 349 347 344 340 334 328 320 313 307 302 297 293 289 285 281 278 275 272
179 181 181 180 179 178 179 183 188 194 200 206 211 215 218 222 225 228 231 234 236 237 238 242 247 250 251 254 263 271 270 269 270 258 220 157 118 97 99 100 97 98 98 95 97 108 114 111 102 81 68 67 61 57 56 54 49 48 47 44 40 34 27 19 12 7 3 1 360 358 356 354 354 353 350 346 340 333 326 319 313 307 302 297 291 285 280 275
167 168 168 167 164 162 159 158 159 161 164 166 168 171 174 177 181 186 190 194 199 201 198 194 204 223 208 120 100 113 124 121 118 119 117 111 103 100 100 98 96 94 92 90 90 90 86 82 76 67 65 67 68 68 65 61 57 53 48 41 35 31 27 25 21 16 12 10 8 6 4 1 0 0 359 357 353 348 343 337 331 324 318 312 306 299 292 284
153 154 154 152 150 148 146 145 144 144 146 147 148 148 148 148 148 148 147 148 151 153 153 138 116 99 100 110 120 120 118 117 116 111 104 98 95 94 92 90 88 86 84 82 81 80 79 76 72 70 70 70 69 67 61 57 53 49 45 41 38 34 32 31 30 27 23 20 17 14 11 8 8 7 6 4 1 359 355 351 347 340 334 327 321 314 306 299
131 132 132 132 131 129 128 128 127 129 130 130 129 127 124 122 120 121 122 124 123 119 114 108 103 103 112 127 124 115 112 109 104 98 93 91 90 89 88 87 85 84 83 82 82 82 79 76 72 70 69 67 64 61 58 55 51 50 48 46 44 43 40 38 36 33 30 28 24 21 19 16 15 14 12 10 8 6 5 3 359 354 348 342 335 328 320 312
114 115 115 115 114 113 113 112 112 111 109 108 106 106 107 108 111 113 113 111 108 104 103 105 108 113 123 127 113 105 101 96 93 91 91 90 90 88 87 85 83 81 79 78 77 76 74 72 69 66 64 61 59 57 55 53 51 49 48 46 45 44 43 41 40 38 35 33 30 28 26 24 23 22 20 18 16 14 12 11 9 6 1 355 349 342 334 326
104 104 104 104 103 103 102 102 103 103 104 105 105 107 108 109 109 107 105 102 102 103 105 108 111 113 116 110 100 94 91 90 92 93 93 92 89 86 83 80 78 75 72 69 68 67 67 66 63 61 60 59 57 56 54 52 50 49 48 47 45 45 44 43 41 40 38 37 35 33 31 30 29 28 27 25 23 21 19 18 17 15 12 7 2 355 348 340
99 99 100 100 101 102 103 104 104 105 106 106 105 105 104 103 102 101 101 101 101 102 102 103 103 102 100 95 91 90 90 92 93 93 92 90 86 82 79 76 73 70 67 64 62 62 62 61 60 59 58 58 57 55 53 51 49 48 48 47 46 46 45 43 42 41 40 38 37 35 34 33 33 33 32 31 29 27 25 24 22 21 20 17 13 8 2 355
98 99 100 101 102 103 103 103 103 102 101 100 99 98 98 97 97 97 97 96 96 96 95 94 94 93 92 90 90 90 90 91 90 89 88 85 82 79 76 72 69 67 64 62 61 60 61 60 58 57 56 54 53 52 50 48 47 46 46 46 45 45 44 43 42 41 39 38 37 36 35 34 34 34 34 33 33 32 31 29 28 27 25 24 21 17 12 7
97 97 98 98 99 99 99 98 97 96 96 95 94 93 93 93 92 92 93 93 93 93 92 92 92 90 90 89 89 89 89 88 87 86 83 80 77 74 71 68 66 65 63 62 60 59 59 58 56 54 51 49 48 47 45 44 43 43 43 43 43 43 42 41 40 38 37 36 35 35 34 33 33 33 33 33 33 33 33 32 31 30 29 28 27 24 20 16
93 94 94 94 94 94 93 93 92 91 91 91 90 91 91 91 91 92 93 93 92 92 92 92 90 88 88 88 89 89 87 86 85 82 79 76 72 69 66 64 64 64 63 61 60 58 56 54 51 49 47 46 45 44 43 43 42 41 41 42 42 41 41 40 38 37 35 34 34 33 32 32 31 31 32 32 32 33 33 33 32 32 32 31 30 29 26 23
89 89 89 89 89 89 89 89 89 89 89 90 90 91 92 92 93 93 93 93 92 92 91 89 87 86 86 86 86 86 85 83 81 77 74 71 68 65 63 62 62 63 63 60 57 55 53 51 49 47 45 44 44 42 42 42 41 41 40 40 40 40 39 38 37 36 35 33 32 32 31 30 30 29 29 29 30 31 32 32 32 32 32 32 32 32 31 28
86 86 86 86 87 87 88 88 89 90 90 91 92 92 93 94 94 94 93 92 91 90 88 86 85 84 84 82 82 81 80 77 75 72 70 68 64 62 61 61 62 61 61 59 55 53 51 49 47 44 43 42 41 41 40 40 41 40 39 39 38 38 38 37 36 35 34 33 32 31 30 30 29 28 27 27 28 28 29 30 31 31 31 32 32 32 32 31
85 85 86 86 87 88 89 90 91 92 92 93 93 93 93 93 93 93 92 90 89 88 86 84 83 82 81 79 78 77 75 73 71 68 66 65 63 61 60 60 59 58 59 59 56 53 50 48 45 42 40 39 39 38 38 39 39 39 38 37 37 36 36 35 35 34 33 32 31 30 30 29 29 27 27 26 26 26 27 27 28 29 29 30 31 31 32 32
85 85 86 87 88 89 90 91 92 93 93 93 93 93 93 93 93 92 90 89 88 86 84 82 81 80 78 76 74 72 71 69 67 65 64 64 62 60 58 57 56 56 56 56 55 54 52 49 45 41 38 37 37 36 36 37 37 37 36 35 35 34 34 33 33 32 32 31 30 30 29 29 28 28 27 26 26 26 26 26 26 26 27 27 28 29 30 31
87 87 87 88 89 90 91 92 93 94 93 93 92 92 92 92 92 89 88 87 86 84 84 82 81 78 75 72 70 69 67 66 65 64 63 62 60 58 56 55 54 53 51 50 49 49 49 47 44 40 38 36 35 34 33 34 35 34 34 33 33 32 31 31 31 30 30 30 30 29 29 29 28 28 27 26 25 25 25 25 25 25 25 25 25 26 27 28
87 89 90 90 91 92 93 93 93 93 92 92 92 91 91 90 89 88 87 86 85 85 84 82 79 75 72 69 66 65 64 62 62 62 61 60 58 55 52 51 49 47 46 45 44 43 43 42 41 38 36 34 33 31 31 31 32 32 31 31 31 30 29 29 29 28 28 28 28 28 28 29 28 27 27 26 25 24 24 24 24 24 23 23 23 24 25 25
86 88 89 90 91 92 92 92 92 91 91 91 91 90 89 87 86 85 84 83 82 82 80 77 75 71 68 65 63 62 60 58 57 56 55 53 52 50 48 46 45 42 41 41 40 38 37 37 37 36 34 32 30 30 29 29 29 28 28 28 28 28 27 27 27 26 26 26 27 26 27 28 28 27 26 25 24 25 25 24 24 23 23 22 22 23 23 23
84 85 86 87 88 88 88 89 89 90 89 89 88 87 85 84 82 81 80 78 77 77 76 74 71 67 65 62 60 58 56 54 52 51 49 47 46 44 42 41 41 38 36 36 36 35 33 32 33 33 31 30 28 28 28 27 26 25 24 25 26 26 26 25 25 25 24 24 24 24 25 26 26 25 25 24 25 25 25 24 24 23 23 22 23 23 23 23
82 83 83 84 85 85 86 87 87 87 87 86 84 83 81 80 79 77 76 74 74 74 72 70 67 64 61 58 55 53 51 49 47 45 44 44 42 41 39 38 36 34 33 33 32 32 31 30 29 29 28 27 26 26 25 24 24 22 22 22 23 23 24 24 24 23 22 22 22 22 23 24 24 23 23 24 24 25 24 23 23 23 23 23 23 23 23 23
80 81 81 82 83 83 84 84 84 83 83 82 81 80 78 77 75 74 72 72 71 70 68 66 63 60 57 53 49 46 43 41 40 38 39 39 38 37 37 35 33 31 31 31 30 29 28 28 27 26 25 24 23 23 22 21 21 20 19 19 20 21 22 22 22 22 22 21 21 21 22 22 22 22 22 22 23 24 23 23 22 22 22 23 23 23 22 22
79 80 81 81 82 82 82 81 81 81 80 79 78 77 75 73 73 72 71 71 70 68 66 63 60 56 53 50 46 43 40 38 35 34 33 33 32 31 31 31 30 29 30 30 30 29 28 27 26 25 23 21 20 19 19 19 18 17 17 17 17 19 20 20 20 20 20 20 19 19 20 21 22 22 21 22 22 22 22 22 22 22 22 23 23 23 22 22
77 78 78 79 79 80 80 80 79 79 78 77 75 74 72 70 69 69 68 68 67 66 65 62 60 56 53 49 46 43 40 38 36 34 32 31 30 29 28 29 30 31 30 29 29 28 28 27 25 25 22 20 18 16 16 16 16 15 15 14 16 17 17 17 17 17 17 18 18 18 19 19 20 21 21 21 22 21 21 21 22 22 22 22 23 22 22 22
78 77 77 77 76 75 75 75 74 73 73 72 70 69 68 67 66 64 64 64 63 62 60 58 54 51 48 46 44 42 39 37 36 36 36 35 34 32 29 28 28 30 29 29 28 27 26 26 25 23 21 18 16 14 14 14 14 13 13 13 14 14 14 15 15 15 15 16 16 17 17 18 18 19 20 21 21 21 21 21 21 22 22 22 22 22 22 22
78 79 79 78 77 75 74 72 70 68 68 67 67 66 65 64 63 61 61 60 58 56 53 50 46 44 43 41 39 39 38 37 37 37 38 36 34 32 29 26 25 26 26 26 26 25 24 23 22 20 18 16 14 13 13 12 12 12 12 11 11 11 11 12 13 14 14 14 15 16 16 16 17 18 19 19 20 20 20 21 21 22 22 22 22 22 22 22
77 77 77 77 76 75 75 74 72 70 68 67 65 64 63 61 59 58 57 55 53 51 47 43 40 38 37 36 35 34 35 36 36 36 35 33 32 30 28 27 25 24 23 22 21 21 20 19 18 17 15 14 13 12 12 11 11 10 10 10 9 9 10 11 11 12 12 13 14 14 14 15 15 16 17 18 18 19 20 21 21 22 22 22 22 22 22 22
74 73 73 72 73 72 72 73 72 71 69 68 65 63 61 60 58 56 53 52 50 47 43 40 37 34 32 30 29 29 30 31 32 32 32 31 30 27 26 25 24 23 21 20 18 17 16 15 14 12 12 11 11 12 11 11 10 9 9 8 6 7 8 9 9 9 10 11 12 12 13 13 14 15 16 16 16 17 18 19 20 21 21 21 21 21 21 21
74 72 71 69 68 67 66 66 66 67 65 63 62 60 59 57 56 55 53 51 48 45 41 38 36 32 28 25 23 22 23 24 25 25 26 27 26 24 22 21 21 20 18 17 15 13 12 10 10 8 8 8 9 9 10 10 9 8 8 7 6 5 5 6 7 7 8 9 10 11 11 12 13 14 14 14 14 15 16 18 19 20 20 20 20 20 20 20
76 75 73 71 69 67 65 63 62 62 61 60 59 57 55 53 51 49 48 46 43 40 37 33 30 26 22 19 17 15 15 16 17 18 18 19 20 20 18 17 16 15 14 13 12 11 9 7 6 5 4 4 4 5 7 9 9 8 7 7 6 4 3 4 5 5 4 6 7 9 9 10 11 12 12 12 12 13 15 16 17 18 18 18 18 18 18 18
75 74 73 72 70 68 67 66 64 62 60 59 57 53 51 48 45 42 38 36 33 30 27 24 21 18 15 13 11 9 8 9 10 11 12 12 13 14 13 12 11 10 9 8 7 7 6 4 2 2 0 359 359 1 3 7 9 8 7 6 6 4 3 2 4 4 3 2 4 6 8 8 9 9 10 10 10 11 13 15 16 16 16 16 16 16 16 15
70 68 67 66 65 64 63 62 61 60 57 53 49 44 39 35 32 29 25 22 20 17 16 14 12 11 10 9 7 6 4 3 4 5 6 8 8 8 9 9 7 6 5 4 3 3 3 3 1 359 358 357 356 357 359 3 6 7 6 6 5 5 3 1 1 3 3 2 1 3 5 7 7 7 8 8 9 10 12 13 14 15 14 14 13 13 14 13
63 60 57 54 52 50 48 47 44 41 38 33 27 23 20 17 14 12 10 8 6 6 6 6 5 6 6 6 5 3 2 1 360 360 1 2 2 3 5 5 5 4 2 1 360 359 359 0 1 0 358 358 357 356 356 360 3 4 4 4 4 3 3 2 0 0 1 1 360 359 2 4 6 6 6 6 7 9 11 11 11 12 12 11 11 11 11 12
43 43 40 37 34 30 27 24 21 18 15 12 8 4 2 2 1 360 359 359 359 0 1 1 1 1 1 1 1 0 359 359 358 356 356 356 357 358 359 1 1 1 0 359 358 357 356 355 358 0 359 358 358 358 356 358 1 2 1 2 1 1 0 0 359 358 358 359 359 358 358 0 3 4 4 4 4 6 8 9 9 9 9 9 10 10 10 10
354 356 0 5 6 6 3 1 0 0 359 356 354 352 350 350 350 351 352 353 354 356 356 357 356 355 355 355 355 355 355 355 354 353 352 352 353 355 355 356 357 358 358 358 357 356 355 353 353 357 359 357 357 358 357 357 359 360 359 359 359 357 357 357 358 357 356 356 357 357 356 356 359 1 2 1 2 3 4 6 7 8 8 8 8 9 9 10
317 323 328 333 337 338 339 338 339 339 340 341 341 340 339 339 340 342 343 344 347 348 349 349 349 350 350 350 350 350 350 351 350 349 349 349 351 353 353 353 353 353 354 355 356 354 353 353 352 353 356 358 355 356 357 357 358 358 357 358 357 355 353 353 354 356 355 354 353 355 356 355 355 357 359 359 360 1 2 3 4 6 7 7 7 8 9 9
301 306 310 314 317 319 321 322 323 324 328 331 332 332 332 331 332 333 333 334 335 337 338 340 341 343 344 345 345 345 345 346 346 345 345 346 348 350 351 351 349 348 350 352 353 351 349 350 352 351 353 356 356 354 355 357 357 356 355 355 355 354 351 349 351 354 355 354 352 352 355 356 356 355 356 358 359 360 0 1 2 4 5 6 7 7 7 8
292 294 298 301 303 306 308 310 314 317 321 325 326 327 327 326 327 327 327 327 328 330 332 334 335 337 339 341 342 342 343 344 344 343 343 344 347 348 349 349 347 345 346 347 348 349 346 346 350 350 350 353 355 353 353 355 356 355 354 353 353 352 350 347 348 351 355 355 353 351 351 354 356 355 354 355 356 357 358 359 1 3 4 4 6 6 6 6
289 291 292 294 296 298 300 305 310 314 316 318 320 321 321 322 322 323 324 324 324 326 328 330 332 333 335 338 340 341 342 343 343 342 342 344 346 347 346 347 346 344 344 344 344 344 343 343 345 349 349 350 353 354 354 355 355 353 352 351 351 350 349 347 346 348 353 356 355 353 351 350 352 354 352 352 353 354 356 358 360 1 3 3 4 5 5 5
292 294 295 297 298 299 300 303 306 308 311 313 316 317 318 318 320 322 323 323 323 324 326 328 330 331 333 337 339 339 340 342 343 344 344 344 344 344 343 343 343 343 342 342 342 342 342 342 343 347 349 348 349 352 354 354 354 352 350 348 348 348 348 348 348 347 349 354 355 354 353 349 348 351 352 350 351 352 354 356 358 359 0 1 1 2 3 3
292 295 297 300 301 302 302 303 305 307 310 313 316 318 318 318 320 321 322 322 323 325 327 328 330 331 332 334 336 337 338 340 342 343 343 343 342 343 342 341 341 342 342 341 342 342 342 342 342 344 348 348 346 347 350 352 352 350 347 346 345 346 346 348 350 349 347 350 353 354 354 352 348 349 350 350 350 351 351 353 357 358 357 358 358 359 360 0
285 289 293 296 298 300 303 305 308 311 313 316 318 318 318 319 320 322 322 322 323 325 325 327 328 329 331 332 333 334 335 337 338 339 339 340 341 341 341 341 341 342 342 342 342 343 344 345 344 344 345 347 345 343 345 348 349 347 345 344 343 344 343 344 349 351 346 345 349 351 352 353 350 348 349 348 349 350 350 350 353 356 356 355 355 356 356 357
279 283 287 290 293 297 301 305 308 311 313 315 316 316 317 317 318 319 320 320 321 321 322 323 324 325 327 328 328 330 332 333 334 334 335 336 337 338 338 339 340 340 340 340 341 343 345 345 346 345 343 344 344 341 340 343 345 344 343 342 341 342 342 341 345 350 347 343 345 348 348 349 349 348 347 346 346 348 349 348 348 352 354 354 353 353 353 354
277 279 283 286 289 293 297 301 305 308 309 310 310 312 313 314 314 315 315 316 316 317 319 320 320 321 323 324 325 326 328 329 330 330 331 332 334 335 335 336 337 338 338 339 340 342 344 345 346 345 342 341 342 339 336 337 341 341 340 339 339 339 340 338 340 346 348 342 341 343 345 345 346 346 345 344 343 346 348 348 346 348 351 352 351 350 350 351
277 278 281 284 287 289 293 295 297 299 301 302 303 304 307 308 309 310 310 311 312 313 315 316 317 318 320 321 322 323 324 325 326 326 327 329 331 332 333 334 335 336 337 339 340 341 342 343 344 344 341 339 339 338 333 332 335 337 336 336 336 337 338 337 337 342 345 342 339 339 342 343 343 343 343 342 341 343 347 348 345 345 347 349 350 349 348 349
Height
10692 10695 10699 10703 10707 10710 10713 10716 10720 10723 10726 10729 10732 10735 10737 10739 10740 10742 10744 10746 10747 10749 10750 10751 10753 10754 10756 10758 10760 10761 10761 10762 10763 10763 10763 10762 10763 10763 10762 10763 10763 10763 10763 10763 10763 10762 10761 10760 10758 10757 10755 10753 10752 10749 10747 10745 10743 10741 10738 10736 10734 10732 10729 10727 10724 10722 10719 10716 10713 10709 10707 10705 10702 10701 10699 10698 10698 10696 10694 10692 10691 10690 10689 10688 10687 10686 10684 10683
10690 10694 10697 10701 10704 10707 10710 10713 10716 10719 10722 10725 10728 10731 10734 10736 10737 10739 10741 10743 10744 10745 10747 10748 10750 10752 10754 10756 10757 10757 10758 10758 10759 10759 10759 10759 10759 10759 10759 10759 10759 10759 10759 10759 10758 10756 10755 10754 10752 10751 10749 10747 10744 10742 10739 10737 10735 10733 10730 10728 10725 10723 10720 10718 10715 10713 10710 10707 10704 10701 10698 10696 10693 10691 10689 10688 10687 10685 10683 10681 10680 10679 10677 10676 10675 10674 10673 10671
10689 10692 10695 10698 10701 10704 10707 10710 10713 10716 10718 10721 10724 10727 10729 10732 10734 10736 10738 10739 10741 10742 10744 10745 10747 10750 10752 10753 10753 10753 10754 10755 10755 10755 10755 10756 10756 10756 10756 10755 10755 10754 10754 10753 10751 10750 10749 10748 10746 10744 10742 10739 10737 10734 10732 10729 10727 10725 10722 10720 10718 10715 10713 10711 10708 10706 10703 10700 10697 10694 10691 10688 10686 10683 10681 10678 10676 10674 10673 10671 10670 10668 10666 10664 10663 10662 10661 10659
10687 10690 10693 10696 10699 10701 10704 10707 10710 10712 10715 10718 10720 10723 10725 10728 10730 10732 10734 10736 10737 10739 10740 10743 10745 10748 10749 10749 10749 10749 10750 10751 10750 10751 10752 10752 10752 10752 10751 10750 10750 10749 10748 10746 10745 10743 10742 10740 10738 10736 10734 10732 10729 10727 10725 10723 10721 10719 10716 10714 10712 10710 10708 10705 10703 10700 10697 10694 10691 10688 10684 10681 10679 10676 10673 10671 10668 10665 10664 10662 10660 10657 10655 10653 10652 10651 10649 10648
10685 10688 10691 10693 10696 10699 10701 10704 10706 10709 10712 10714 10717 10719 10721 10723 10725 10728 10730 10732 10734 10736 10737 10740 10742 10744 10744 10744 10745 10745 10746 10746 10747 10748 10748 10748 10747 10746 10745 10745 10744 10743 10742 10740 10738 10737 10735 10733 10732 10730 10728 10726 10724 10722 10720 10718 10716 10715 10712 10711 10708 10706 10704 10701 10699 10696 10693 10690 10687 10683 10680 10676 10673 10670 10667 10663 10660 10657 10655 10654 10651 10648 10645 10643 10641 10639 10638 10637
10684 10686 10689 10691 10694 10696 10698 10701 10703 10705 10708 10710 10713 10715 10717 10719 10721 10724 10726 10728 10731 10732 10734 10736 10738 10739 10740 10741 10741 10742 10743 10743 10743 10744 10743 10743 10742 10741 10740 10739 10738 10737 10736 10734 10733 10732 10730 10729 10727 10726 10724 10722 10720 10719 10718 10716 10714 10712 10710 10708 10706 10704 10702 10699 10696 10694 10691 10688 10685 10681 10678 10674 10670 10667 10663 10659 10655 10651 10649 10646 10643 10640 10636 10633 10631 10628 10626 10626
10683 10685 10688 10690 10692 10694 10696 10698 10700 10703 10705 10707 10709 10711 10714 10716 10718 10720 10723 10725 10727 10729 10730 10732 10734 10735 10737 10737 10738 10739 10739 10739 10739 10739 10739 10738 10737 10736 10736 10734 10734 10733 10731 10730 10729 10728 10727 10725 10724 10723 10722 10720 10719 10717 10716 10714 10712 10710 10708 10706 10704 10702 10700 10697 10694 10691 10688 10685 10682 10678 10675 10671 10668 10664 10660 10656 10652 10648 10644 10640 10636 10632 10628 10625 10622 10619 10617 10615
10682 10685 10687 10689 10691 10693 10695 10697 10699 10700 10702 10704 10706 10709 10711 10713 10715 10717 10719 10721 10723 10725 10727 10729 10730 10732 10733 10734 10735 10735 10736 10736 10736 10735 10735 10734 10733 10733 10732 10731 10730 10730 10729 10728 10727 10726 10725 10724 10723 10722 10721 10720 10718 10717 10715 10713 10711 10709 10707 10705 10702 10700 10698 10695 10692 10689 10686 10682 10679 10675 10672 10668 10664 10661 10657 10653 10649 10645 10640 10636 10632 10627 10623 10619 10615 10611 10608 10606
10682 10685 10687 10689 10690 10692 10694 10695 10697 10699 10701 10702 10704 10706 10708 10710 10712 10714 10716 10718 10720 10722 10725 10727 10728 10729 10730 10731 10732 10733 10733 10733 10733 10733 10732 10732 10731 10731 10730 10729 10729 10729 10728 10727 10726 10726 10726 10725 10723 10723 10721 10720 10718 10716 10714 10712 10710 10708 10706 10703 10701 10699 10696 10694 10691 10687 10684 10681 10677 10673 10670 10666 10662 10658 10653 10649 10645 10641 10636 10632 10628 10623 10618 10614 10609 10605 10602 10598
10683 10685 10687 10689 10690 10692 10693 10695 10696 10698 10699 10701 10703 10704 10706 10708 10710 10712 10714 10716 10719 10721 10723 10724 10726 10727 10728 10729 10730 10731 10731 10731 10731 10731 10731 10730 10730 10730 10729 10729 10729 10729 10728 10728 10728 10727 10726 10725 10723 10723 10721 10720 10718 10716 10714 10712 10710 10708 10706 10703 10701 10698 10695 10693 10689 10686 10682 10679 10675 10671 10668 10664 10659 10655 10651 10646 10642 10637 10633 10628 10623 10619 10614 10609 10604 10600 10596 10592
10683 10685 10687 10688 10690 10692 10693 10695 10696 10698 10699 10700 10702 10704 10706 10707 10709 10711 10713 10715 10717 10719 10721 10723 10725 10726 10727 10728 10730 10730 10730 10731 10731 10731 10731 10730 10730 10730 10730 10730 10730 10730 10730 10729 10729 10728 10727 10725 10723 10723 10722 10720 10719 10717 10715 10713 10710 10708 10705 10702 10700 10697 10694 10690 10687 10684 10680 10677 10673 10670 10666 10662 10658 10653 10649 10644 10639 10634 10629 10625 10620 10615 10610 10605 10600 10595 10591 10586
10683 10685 10687 10688 10690 10692 10693 10694 10696 10697 10699 10700 10702 10704 10705 10707 10709 10711 10713 10715 10717 10719 10721 10722 10724 10726 10728 10730 10731 10731 10731 10732 10732 10731 10731 10731 10732 10732 10732 10732 10732 10732 10731 10730 10730 10729 10727 10725 10724 10725 10723 10721 10720 10717 10715 10712 10710 10707 10704 10701 10698 10695 10692 10689 10686 10682 10679 10675 10672 10668 10664 10660 10656 10651 10647 10642 10637 10632 10627 10622 10617 10611 10606 10601 10595 10590 10586 10581
10684 10685 10687 10689 10690 10692 10693 10695 10696 10698 10699 10701 10702 10704 10705 10707 10709 10711 10713 10715 10717 10719 10721 10722 10725 10728 10732 10734 10733 10732 10732 10733 10732 10732 10732 10733 10734 10734 10734 10734 10734 10733 10732 10732 10731 10730 10728 10726 10726 10726 10724 10722 10719 10717 10714 10712 10709 10706 10703 10700 10697 10694 10691 10688 10685 10681 10677 10674 10670 10667 10662 10658 10654 10649 10644 10640 10635 10630 10624 10619 10614 10608 10603 10597 10592 10586 10581 10576
10685 10687 10689 10690 10692 10693 10695 10696 10698 10699 10701 10702 10704 10705 10707 10709 10711 10713 10715 10717 10718 10720 10722 10726 10729 10732 10735 10735 10734 10733 10733 10733 10733 10733 10734 10735 10736 10737 10737 10736 10735 10735 10734 10733 10733 10731 10729 10727 10727 10726 10724 10721 10719 10716 10714 10711 10708 10705 10702 10699 10696 10693 10690 10686 10683 10680 10676 10673 10669 10665 10661 10656 10652 10647 10642 10637 10632 10627 10622 10617 10611 10606 10600 10594 10588 10583 10577 10572
10688 10690 10691 10693 10694 10696 10698 10699 10701 10703 10705 10706 10708 10709 10711 10713 10714 10716 10717 10719 10721 10723 10726 10730 10733 10734 10736 10735 10734 10734 10734 10734 10735 10737 10738 10739 10739 10739 10739 10737 10736 10736 10735 10735 10734 10732 10729 10727 10727 10725 10723 10721 10718 10715 10713 10710 10707 10704 10701 10698 10695 10691 10688 10685 10682 10678 10675 10672 10668 10664 10659 10655 10650 10646 10641 10636 10631 10626 10621 10615 10610 10604 10598 10592 10586 10580 10574 10568
10693 10694 10696 10697 10699 10701 10703 10704 10706 10708 10710 10711 10712 10713 10715 10716 10717 10719 10720 10723 10725 10727 10730 10733 10735 10736 10736 10736 10736 10736 10737 10738 10740 10740 10741 10742 10741 10741 10740 10738 10737 10736 10735 10735 10734 10732 10729 10726 10726 10725 10723 10720 10717 10715 10712 10709 10706 10704 10701 10698 10694 10691 10688 10684 10681 10678 10674 10671 10667 10663 10659 10655 10650 10645 10640 10635 10631 10626 10620 10615 10609 10603 10597 10591 10585 10578 10572 10566
10699 10701 10702 10703 10705 10706 10708 10709 10710 10712 10713 10714 10716 10717 10718 10719 10721 10723 10725 10727 10730 10731 10733 10736 10737 10737 10737 10738 10738 10739 10740 10742 10743 10744 10744 10744 10743 10742 10741 10739 10738 10736 10735 10735 10734 10732 10729 10727 10727 10726 10723 10720 10716 10713 10710 10708 10707 10705 10702 10698 10695 10691 10688 10684 10681 10677 10674 10671 10667 10663 10659 10655 10650 10645 10640 10635 10630 10625 10620 10614 10608 10603 10597 10590 10584 10578 10571 10565
10705 10706 10708 10709 10710 10711 10712 10713 10714 10715 10716 10717 10719 10721 10722 10724 10726 10728 10730 10731 10734 10735 10737 10739 10740 10740 10740 10741 10742 10743 10745 10746 10746 10746 10746 10745 10744 10743 10741 10740 10738 10735 10736 10736 10735 10734 10730 10729 10729 10726 10723 10719 10714 10712 10711 10710 10708 10706 10703 10699 10695 10692 10688 10684 10680 10677 10674 10671 10667 10663 10659 10655 10650 10645 10640 10635 10630 10624 10619 10614 10608 10602 10596 10590 10584 10577 10571 10564
10710 10712 10713 10714 10714 10715 10716 10717 10718 10719 10721 10722 10723 10725 10727 10729 10731 10733 10735 10737 10738 10739 10741 10743 10743 10742 10744 10746 10746 10746 10747 10748 10749 10748 10747 10746 10745 10743 10742 10740 10737 10737 10738 10738 10737 10734 10732 10731 10729 10724 10721 10718 10716 10716 10715 10713 10710 10707 10704 10700 10696 10692 10689 10685 10681 10678 10674 10671 10667 10663 10659 10655 10650 10645 10640 10635 10630 10624 10619 10613 10608 10602 10596 10590 10583 10577 10571 10565
10716 10717 10718 10718 10719 10720 10721 10721 10722 10724 10726 10727 10729 10731 10733 10735 10738 10740 10741 10742 10742 10744 10746 10746 10745 10746 10749 10750 10749 10749 10750 10751 10750 10750 10749 10747 10745 10744 10743 10740 10739 10741 10741 10739 10737 10735 10734 10732 10728 10725 10723 10722 10720 10719 10717 10714 10711 10707 10704 10700 10697 10693 10689 10686 10682 10678 10675 10671 10667 10663 10659 10654 10650 10645 10641 10636 10631 10625 10619 10613 10607 10602 10596 10589 10583 10577 10571 10565
10721 10722 10723 10724 10724 10725 10726 10727 10729 10730 10732 10734 10735 10737 10739 10741 10743 10745 10747 10746 10746 10747 10748 10748 10749 10751 10752 10752 10752 10752 10752 10752 10752 10752 10751 10748 10746 10745 10745 10743 10744 10744 10742 10739 10738 10737 10735 10732 10728 10728 10727 10725 10723 10720 10718 10715 10711 10708 10704 10701 10697 10693 10690 10686 10683 10679 10676 10672 10667 10663 10658 10654 10649 10645 10641 10636 10631 10625 10620 10614 10608 10602 10596 10589 10583 10577 10571 10565
10727 10728 10729 10730 10730 10732 10733 10734 10736 10737 10739 10740 10741 10743 10745 10746 10748 10751 10751 10750 10750 10751 10751 10752 10753 10754 10755 10755 10755 10754 10753 10754 10754 10753 10752 10749 10748 10748 10748 10748 10747 10745 10742 10742 10741 10739 10736 10732 10731 10731 10728 10726 10724 10722 10720 10716 10712 10708 10705 10701 10697 10694 10691 10688 10684 10680 10677 10672 10668 10663 10658 10653 10649 10645 10641 10636 10630 10625 10620 10614 10608 10602 10596 10590 10583 10577 10571 10565
10734 10734 10735 10736 10737 10739 10740 10741 10742 10743 10745 10746 10747 10749 10750 10751 10753 10755 10755 10754 10754 10754 10754 10755 10756 10757 10758 10758 10757 10755 10756 10757 10756 10755 10754 10752 10752 10752 10752 10750 10748 10746 10746 10745 10743 10740 10737 10735 10735 10733 10730 10728 10726 10724 10722 10717 10712 10708 10704 10701 10698 10695 10692 10689 10685 10681 10677 10673 10668 10663 10659 10654 10649 10645 10640 10636 10631 10625 10619 10614 10607 10602 10596 10589 10583 10577 10571 10565
10740 10741 10742 10743 10744 10745 10746 10747 10748 10749 10750 10751 10752 10754 10755 10756 10757 10758 10759 10758 10758 10758 10757 10759 10760 10761 10761 10760 10759 10758 10759 10759 10758 10757 10756 10755 10755 10755 10754 10752 10750 10749 10748 10746 10744 10742 10740 10739 10738 10735 10733 10731 10728 10726 10722 10717 10712 10708 10705 10703 10699 10696 10693 10689 10685 10681 10677 10673 10668 10664 10660 10655 10650 10646 10641 10636 10631 10625 10619 10613 10607 10601 10594 10589 10584 10578 10572 10566
10746 10747 10748 10749 10750 10751 10752 10753 10753 10754 10755 10755 10757 10759 10760 10761 10761 10762 10763 10762 10761 10761 10762 10762 10763 10763 10763 10762 10762 10761 10761 10761 10760 10760 10759 10758 10758 10757 10755 10753 10751 10750 10748 10746 10745 10743 10741 10740 10738 10736 10734 10732 10729 10726 10721 10716 10713 10709 10707 10705 10701 10697 10694 10690 10685 10681 10677 10673 10669 10665 10661 10656 10651 10647 10642 10636 10631 10625 10619 10613 10606 10599 10594 10589 10584 10578 10573 10567
10753 10753 10754 10755 10756 10757 10757 10758 10758 10759 10760 10761 10762 10763 10764 10764 10765 10765 10765 10764 10765 10765 10765 10765 10765 10765 10765 10765 10765 10764 10763 10763 10763 10762 10760 10760 10759 10758 10756 10754 10751 10750 10749 10748 10747 10745 10743 10741 10738 10736 10735 10732 10730 10726 10721 10717 10714 10711 10710 10706 10703 10699 10695 10691 10686 10682 10679 10675 10670 10667 10662 10657 10652 10648 10643 10637 10632 10626 10619 10612 10606 10600 10596 10591 10585 10579 10573 10567
10759 10759 10760 10760 10761 10761 10762 10762 10763 10764 10765 10766 10766 10767 10767 10768 10768 10768 10768 10767 10768 10768 10768 10768 10767 10768 10767 10767 10767 10766 10766 10766 10764 10763 10762 10761 10760 10758 10756 10754 10752 10751 10750 10749 10747 10745 10744 10741 10739 10738 10736 10733 10730 10725 10721 10719 10716 10714 10711 10708 10704 10701 10697 10692 10687 10683 10680 10675 10671 10667 10662 10658 10654 10650 10645 10639 10633 10626 10619 10613 10608 10603 10599 10593 10587 10580 10574 10568
10764 10764 10765 10765 10765 10766 10767 10767 10768 10769 10769 10770 10770 10770 10771 10771 10771 10771 10770 10770 10771 10771 10771 10770 10770 10770 10769 10769 10769 10768 10768 10767 10765 10765 10764 10762 10761 10760 10757 10755 10753 10753 10752 10750 10748 10746 10745 10743 10741 10739 10736 10733 10729 10726 10724 10722 10719 10716 10713 10709 10706 10702 10698 10693 10689 10685 10681 10676 10672 10668 10664 10659 10655 10650 10645 10639 10633 10627 10622 10617 10612 10606 10601 10595 10588 10581 10575 10570
10769 10769 10769 10770 10770 10771 10771 10772 10772 10773 10773 10773 10773 10774 10774 10774 10774 10773 10773 10773 10774 10774 10773 10773 10773 10772 10771 10771 10770 10769 10768 10767 10766 10766 10765 10763 10762 10760 10758 10756 10755 10755 10753 10751 10749 10747 10745 10743 10741 10739 10736 10733 10730 10728 10726 10724 10721 10718 10714 10710 10707 10703 10698 10694 10690 10687 10683 10679 10675 10671 10666 10662 10657 10652 10646 10640 10635 10631 10626 10620 10614 10608 10602 10595 10588 10582 10576 10571
10773 10773 10774 10774 10774 10775 10775 10775 10776 10776 10776 10777 10777 10777 10777 10777 10776 10776 10776 10777 10777 10776 10776 10775 10774 10774 10773 10773 10772 10771 10770 10769 10769 10768 10766 10763 10761 10759 10757 10757 10757 10756 10754 10752 10750 10749 10746 10744 10742 10740 10737 10734 10732 10730 10727 10724 10721 10718 10715 10712 10708 10703 10699 10695 10692 10688 10685 10682 10678 10673 10669 10664 10660 10655 10650 10644 10639 10634 10628 10621 10615 10609 10603 10596 10589 10583 10578 10573
10777 10777 10777 10777 10778 10778 10778 10779 10779 10779 10779 10779 10779 10779 10779 10779 10779 10779 10779 10779 10779 10778 10778 10777 10777 10776 10776 10775 10774 10774 10773 10772 10771 10769 10766 10764 10763 10763 10762 10761 10760 10758 10755 10753 10751 10749 10747 10745 10744 10741 10739 10736 10733 10730 10728 10725 10722 10718 10715 10712 10708 10703 10699 10696 10693 10690 10687 10684 10679 10675 10670 10666 10661 10657 10652 10647 10641 10635 10629 10623 10617 10611 10604 10598 10592 10586 10580 10575
10780 10780 10780 10780 10781 10781 10781 10781 10782 10782 10782 10782 10782 10782 10781 10781 10781 10781 10781 10781 10781 10780 10780 10779 10779 10778 10777 10776 10776 10775 10774 10773 10771 10770 10769 10769 10768 10767 10765 10762 10760 10758 10756 10754 10752 10750 10748 10746 10744 10742 10739 10737 10734 10731 10728 10725 10722 10719 10715 10710 10705 10703 10701 10699 10696 10693 10689 10685 10680 10675 10671 10666 10662 10657 10652 10647 10642 10636 10631 10625 10619 10613 10607 10600 10594 10589 10583 10577
10784 10783 10783 10784 10784 10783 10783 10784 10784 10784 10784 10784 10784 10784 10784 10783 10783 10783 10783 10783 10782 10782 10781 10781 10780 10779 10778 10778 10777 10776 10775 10774 10773 10772 10772 10771 10769 10766 10764 10762 10760 10758 10756 10755 10753 10751 10749 10746 10744 10741 10739 10737 10734 10731 10728 10725 10721 10718 10714 10711 10708 10707 10705 10702 10698 10695 10690 10686 10680 10675 10671 10667 10662 10657 10653 10648 10643 10638 10633 10628 10622 10616 10610 10604 10598 10593 10587 10580
10787 10787 10787 10787 10786 10786 10786 10786 10786 10786 10786 10786 10786 10786 10786 10785 10785 10785 10785 10784 10784 10783 10783 10782 10781 10780 10779 10779 10778 10777 10776 10775 10774 10773 10772 10770 10768 10767 10765 10764 10762 10760 10758 10755 10753 10751 10748 10746 10743 10741 10739 10737 10735 10732 10729 10726 10722 10719 10717 10714 10712 10710 10706 10702 10698 10694 10690 10685 10680 10676 10671 10667 10662 10657 10653 10648 10643 10639 10634 10630 10624 10619 10613 10607 10601 10595 10589 10583
10790 10790 10789 10789 10789 10789 10789 10789 10789 10788 10788 10788 10788 10788 10787 10787 10787 10786 10786 10786 10785 10785 10784 10783 10782 10782 10781 10780 10779 10778 10777 10776 10775 10774 10773 10771 10770 10768 10767 10765 10763 10761 10758 10756 10753 10751 10749 10746 10744 10742 10740 10738 10736 10734 10731 10728 10725 10722 10718 10715 10712 10708 10705 10701 10697 10693 10689 10684 10680 10676 10672 10667 10663 10658 10653 10648 10644 10640 10635 10631 10626 10620 10614 10608 10603 10597 10591 10585
10792 10792 10792 10791 10791 10791 10791 10791 10791 10790 10790 10790 10790 10789 10789 10789 10788 10788 10788 10787 10787 10786 10786 10785 10784 10783 10782 10781 10780 10779 10778 10777 10776 10775 10773 10772 10771 10769 10767 10765 10763 10761 10758 10756 10754 10751 10749 10747 10744 10742 10740 10738 10736 10734 10732 10729 10726 10722 10719 10715 10711 10707 10704 10700 10696 10692 10689 10685 10681 10677 10672 10668 10663 10659 10655 10650 10646 10641 10636 10631 10626 10620 10615 10610 10604 10599 10594 10589
10794 10794 10794 10794 10793 10793 10793 10793 10792 10792 10792 10792 10791 10791 10791 10790 10790 10789 10789 10789 10788 10788 10787 10786 10785 10785 10783 10782 10781 10779 10778 10777 10776 10774 10773 10772 10770 10769 10767 10765 10763 10761 10759 10756 10754 10752 10750 10747 10745 10743 10740 10737 10736 10734 10732 10729 10726 10723 10719 10715 10712 10708 10704 10700 10697 10692 10688 10685 10681 10677 10673 10669 10664 10660 10656 10652 10647 10642 10636 10630 10625 10620 10615 10611 10606 10601 10596 10591
10796 10795 10795 10795 10795 10794 10794 10794 10794 10793 10793 10793 10793 10792 10792 10792 10791 10791 10790 10790 10789 10789 10788 10787 10786 10785 10784 10783 10781 10780 10778 10777 10775 10774 10773 10771 10770 10768 10767 10765 10763 10761 10759 10757 10755 10753 10750 10748 10745 10743 10740 10737 10735 10733 10731 10728 10726 10723 10720 10716 10713 10709 10705 10701 10698 10694 10689 10684 10680 10677 10673 10669 10664 10661 10657 10652 10648 10642 10636 10631 10625 10620 10615 10611 10607 10602 10598 10593
10797 10797 10796 10796 10796 10796 10795 10795 10795 10794 10794 10794 10793 10793 10793 10792 10792 10791 10791 10790 10790 10789 10788 10788 10787 10786 10784 10783 10782 10780 10778 10776 10775 10773 10772 10771 10769 10768 10766 10765 10763 10761 10759 10757 10755 10753 10751 10748 10746 10743 10740 10738 10735 10732 10729 10727 10725 10722 10719 10716 10713 10709 10705 10701 10697 10694 10690 10685 10681 10677 10674 10670 10666 10661 10656 10652 10647 10642 10637 10632 10627 10622 10617 10612 10607 10603 10599 10594
10798 10798 10798 10797 10797 10797 10796 10796 10795 10795 10795 10794 10794 10793 10793 10792 10792 10791 10791 10790 10789 10789 10788 10787 10786 10785 10784 10783 10782 10780 10778 10776 10775 10773 10771 10770 10769 10767 10766 10764 10763 10761 10758 10756 10754 10752 10750 10748 10746 10744 10741 10738 10736 10732 10729 10726 10723 10720 10717 10715 10712 10708 10705 10701 10697 10693 10690 10686 10681 10677 10673 10670 10666 10661 10656 10652 10647 10643 10638 10633 10627 10623 10618 10613 10608 10604 10600 10595
10799 10799 10798 10798 10798 10797 10797 10796 10796 10795 10795 10794 10794 10793 10793 10792 10792 10791 10790 10790 10789 10788 10787 10786 10785 10784 10783 10782 10781 10780 10778 10776 10775 10773 10771 10769 10768 10766 10765 10763 10762 10760 10758 10756 10753 10751 10749 10747 10746 10743 10740 10737 10735 10732 10729 10726 10723 10720 10716 10713 10710 10707 10704 10700 10697 10693 10689 10686 10682 10677 10672 10669 10666 10661 10657 10652 10647 10643 10639 10634 10629 10624 10619 10615 10610 10606 10600 10595
10799 10799 10799 10798 10798 10798 10797 10797 10796 10796 10795 10794 10794 10793 10793 10792 10792 10791 10790 10789 10789 10788 10787 10786 10785 10784 10783 10782 10780 10779 10777 10776 10774 10772 10770 10769 10767 10765 10763 10762 10761 10759 10757 10755 10753 10750 10748 10746 10744 10742 10740 10737 10734 10731 10729 10725 10722 10718 10715 10712 10709 10705 10702 10699 10696 10692 10688 10684 10681 10678 10673 10668 10665 10661 10657 10653 10648 10644 10639 10635 10630 10625 10621 10616 10611 10607 10602 10596
10799 10799 10798 10798 10798 10797 10797 10796 10796 10795 10795 10794 10794 10793 10792 10792 10791 10791 10790 10789 10788 10788 10787 10786 10784 10783 10782 10781 10780 10778 10777 10775 10773 10772 10770 10768 10766 10765 10763 10761 10759 10758 10756 10755 10753 10750 10747 10745 10741 10739 10737 10736 10732 10730 10727 10724 10721 10718 10714 10711 10708 10704 10701 10697 10695 10691 10688 10683 10680 10677 10674 10669 10664 10660 10657 10654 10650 10645 10640 10635 10631 10626 10622 10617 10612 10607 10602 10597
10798 10798 10798 10797 10797 10796 10796 10795 10795 10794 10794 10794 10793 10792 10792 10791 10790 10790 10789 10788 10787 10787 10786 10785 10783 10782 10781 10780 10779 10777 10776 10774 10772 10770 10769 10767 10765 10764 10762 10760 10758 10756 10754 10753 10752 10750 10748 10746 10743 10739 10736 10734 10731 10728 10726 10723 10721 10718 10714 10711 10708 10704 10700 10696 10693 10690 10687 10683 10679 10675 10673 10670 10665 10660 10656 10653 10649 10646 10642 10637 10632 10627 10622 10617 10613 10607 10602 10598
10797 10797 10797 10796 10796 10795 10795 10794 10794 10793 10793 10793 10792 10791 10791 10790 10789 10788 10788 10787 10786 10785 10784 10783 10782 10781 10779 10778 10777 10776 10774 10772 10771 10769 10767 10766 10764 10762 10761 10759 10757 10754 10752 10751 10749 10748 10747 10745 10743 10741 10738 10735 10732 10729 10726 10723 10720 10717 10714 10710 10707 10703 10700 10696 10692 10689 10686 10682 10678 10674 10670 10668 10666 10661 10656 10652 10648 10645 10641 10637 10633 10628 10622 10617 10612 10607 10602 10597
10795 10795 10795 10795 10794 10794 10794 10793 10793 10792 10792 10791 10791 10790 10789 10789 10788 10787 10786 10785 10784 10783 10782 10781 10780 10779 10778 10776 10775 10773 10772 10770 10769 10767 10765 10764 10763 10761 10759 10757 10756 10753 10751 10749 10747 10745 10744 10742 10741 10739 10736 10733 10731 10729 10725 10722 10719 10716 10712 10709 10706 10703 10699 10695 10691 10687 10684 10681 10677 10673 10669 10665 10662 10660 10656 10651 10647 10643 10639 10634 10630 10626 10621 10616 10611 10606 10601 10596
10793 10793 10793 10793 10793 10792 10792 10792 10791 10791 10790 10789 10789 10788 10788 10787 10786 10785 10784 10783 10782 10781 10780 10780 10778 10777 10776 10775 10773 10772 10770 10769 10767 10765 10764 10762 10761 10759 10757 10756 10754 10752 10750 10748 10746 10743 10741 10739 10737 10735 10733 10729 10726 10725 10723 10720 10717 10714 10710 10707 10704 10701 10698 10694 10690 10686 10682 10680 10676 10672 10668 10664 10660 10657 10654 10648 10643 10639 10635 10631 10627 10622 10618 10614 10609 10604 10600 10596
10791 10791 10791 10791 10791 10790 10790 10790 10789 10789 10788 10788 10787 10786 10786 10785 10784 10783 10782 10781 10780 10780 10779 10778 10776 10775 10774 10773 10771 10770 10768 10767 10765 10763 10762 10760 10759 10757 10756 10754 10752 10750 10748 10746 10744 10741 10739 10736 10733 10731 10729 10727 10723 10721 10720 10718 10715 10712 10709 10706 10703 10700 10696 10693 10690 10685 10680 10678 10675 10671 10668 10664 10659 10655 10652 10648 10643 10637 10631 10627 10624 10619 10614 10610 10607 10602 10598 10594
10789 10788 10788 10788 10788 10788 10788 10787 10787 10787 10786 10786 10785 10784 10784 10783 10782 10781 10780 10779 10778 10778 10777 10776 10774 10773 10772 10771 10769 10768 10766 10765 10763 10761 10760 10758 10757 10755 10754 10752 10750 10748 10746 10744 10742 10740 10737 10734 10730 10726 10724 10722 10720 10717 10716 10715 10713 10709 10706 10703 10700 10697 10694 10691 10688 10685 10680 10676 10673 10670 10666 10664 10660 10655 10650 10647 10643 10638 10632 10626 10622 10619 10614 10609 10605 10601 10596 10592
10786 10786 10785 10785 10785 10785 10785 10784 10784 10784 10784 10783 10783 10782 10781 10781 10780 10779 10779 10778 10777 10776 10775 10774 10772 10771 10770 10768 10767 10766 10764 10762 10761 10759 10757 10756 10754 10752 10751 10749 10748 10746 10743 10741 10739 10737 10734 10731 10728 10723 10719 10717 10715 10712 10711 10711 10710 10707 10703 10700 10697 10695 10691 10688 10686 10684 10679 10674 10671 10668 10664 10661 10658 10654 10650 10646 10643 10638 10633 10626 10620 10617 10614 10609 10604 10599 10595 10591
10783 10783 10783 10782 10782 10782 10782 10781 10781 10781 10780 10780 10780 10779 10779 10778 10778 10777 10776 10776 10775 10774 10773 10772 10770 10769 10768 10766 10765 10763 10762 10760 10758 10757 10755 10753 10751 10750 10748 10746 10745 10743 10741 10738 10736 10734 10732 10729 10727 10723 10718 10714 10712 10709 10706 10705 10705 10703 10700 10697 10694 10692 10688 10685 10682 10681 10678 10673 10669 10666 10662 10659 10655 10652 10648 10644 10641 10638 10634 10627 10620 10615 10612 10608 10603 10598 10594 10589
10780 10780 10780 10780 10780 10779 10779 10779 10778 10778 10777 10777 10777 10776 10776 10775 10775 10774 10773 10773 10772 10771 10770 10769 10768 10767 10765 10764 10762 10761 10759 10758 10756 10754 10752 10751 10749 10746 10744 10742 10741 10739 10738 10736 10733 10730 10728 10727 10725 10723 10719 10713 10711 10708 10703 10700 10701 10700 10697 10693 10691 10688 10685 10680 10677 10676 10675 10671 10666 10663 10660 10657 10653 10649 10645 10641 10638 10636 10633 10628 10620 10613 10608 10605 10602 10597 10592 10587